Time,TemperatureF,DewpointF,PressureIn,WindDirection,WindDirectionDegrees,WindSpeedMPH,WindSpeedGustMPH,Humidity,HourlyPrecipIn,Conditions,Clouds,dailyrainin,SoftwareType,DateUTC
2013-04-28 14:17:00,84.4,54.5,30.41,East,90,5.8,5.8,36,0.00,CLR,SCT,0.00,WeatherDisplay:10.37,2013-04-28 18:17:00,
2013-04-28 14:18:00,84.4,54.5,30.41,East,90,5.8,5.8,36,0.00,CLR,SCT,0.00,WeatherDisplay:10.37,2013-04-28 18:18:00,
2013-04-28 14:23:00,84.4,53.7,30.41,East,90,9.2,9.2,35,0.00,CLR,SCT,0.00,WeatherDisplay:10.37,2013-04-28 18:23:00,
2013-04-28 14:48:00,84.4,53.7,30.40,ENE,68,6.9,6.9,35,0.00,CLR,SCT,0.00,WeatherDisplay:10.37,2013-04-28 18:48:00,
2013-04-28 14:53:00,84.9,55.0,30.40,ESE,112,8.1,8.1,36,0.00,CLR,SCT,0.00,WeatherDisplay:10.37,2013-04-28 18:53:00,
2013-04-28 15:00:00,84.7,54.8,30.40,NE,45,9.2,9.2,36,0.00,CLR,SCT,0.00,WeatherDisplay:10.37,2013-04-28 19:00:00,
2013-04-28 15:05:00,84.9,54.2,30.40,ENE,68,8.1,8.1,35,0.00,CLR,SCT,0.00,WeatherDisplay:10.37,2013-04-28 19:05:00,
2013-04-28 15:10:00,84.9,54.2,30.39,East,90,8.1,8.1,35,0.00,CLR,SCT,0.00,WeatherDisplay:10.37,2013-04-28 19:10:00,
2013-04-28 15:15:00,85.1,55.1,30.39,ESE,112,6.9,6.9,36,0.00,CLR,SCT,0.00,WeatherDisplay:10.37,2013-04-28 19:15:00,
2013-04-28 15:20:00,84.9,54.2,30.39,ESE,112,10.4,10.4,35,0.00,CLR,SCT,0.00,WeatherDisplay:10.37,2013-04-28 19:20:00,
2013-04-28 15:28:00,86.0,64.6,30.33,East,90,6.9,0.0,49,0.00,CLR,SCT,0.00,WeatherDisplay:10.37,2013-04-28 19:28:00,
2013-04-28 15:33:00,84.9,54.2,30.38,NE,45,4.6,5.8,35,0.00,CLR,SCT,0.00,WeatherDisplay:10.37,2013-04-28 19:33:00,
2013-04-28 15:38:00,84.9,54.2,30.38,East,90,8.1,8.1,35,0.00,CLR,SCT,0.00,WeatherDisplay:10.37,2013-04-28 19:38:00,
2013-04-28 15:43:00,85.1,54.4,30.38,ENE,68,12.7,12.7,35,0.00,CLR,SCT,0.00,WeatherDisplay:10.37,2013-04-28 19:43:00,
2013-04-28 15:48:00,85.3,54.5,30.36,East,90,8.1,8.1,35,0.00,CLR,SCT,0.00,WeatherDisplay:10.37,2013-04-28 19:48:00,
2013-04-28 15:53:00,85.5,53.9,30.36,ESE,112,10.4,10.4,34,0.00,CLR,SCT,0.00,WeatherDisplay:10.37,2013-04-28 19:53:00,
2013-04-28 15:58:00,85.6,54.8,30.36,SW,225,6.9,6.9,35,0.00,CLR,SCT,0.00,WeatherDisplay:10.37,2013-04-28 19:58:00,
2013-04-28 16:03:00,85.5,53.9,30.36,ENE,68,5.8,5.8,34,0.00,CLR,SCT,0.00,WeatherDisplay:10.37,2013-04-28 20:03:00,
2013-04-28 16:08:00,85.5,53.9,30.36,East,90,9.2,9.2,34,0.00,CLR,SCT,0.00,WeatherDisplay:10.37,2013-04-28 20:08:00,
2013-04-28 16:13:00,85.6,54.8,30.36,ENE,68,10.4,10.4,35,0.00,CLR,SCT,0.00,WeatherDisplay:10.37,2013-04-28 20:13:00,
2013-04-28 16:18:00,85.8,55.0,30.36,East,90,9.2,9.2,35,0.00,CLR,SCT,0.00,WeatherDisplay:10.37,2013-04-28 20:18:00,
2013-04-28 16:23:00,85.8,55.0,30.36,ESE,112,8.9,8.9,35,0.00,CLR,SCT,0.00,WeatherDisplay:10.37,2013-04-28 20:23:00,
2013-04-28 16:28:00,85.6,54.0,30.35,ENE,68,11.5,11.5,34,0.00,CLR,SCT,0.00,WeatherDisplay:10.37,2013-04-28 20:28:00,
2013-04-28 16:34:00,85.8,55.0,30.35,ENE,68,11.0,11.0,35,0.00,CLR,SCT,0.00,WeatherDisplay:10.37,2013-04-28 20:34:00,
2013-04-28 16:39:00,86.0,54.4,30.35,East,90,11.5,11.5,34,0.00,CLR,SCT,0.00,WeatherDisplay:10.37,2013-04-28 20:39:00,
2013-04-28 16:44:00,86.0,54.4,30.35,SE,135,6.9,6.9,34,0.00,CLR,SCT,0.00,WeatherDisplay:10.37,2013-04-28 20:44:00,
2013-04-28 16:49:00,85.8,55.0,30.34,SE,135,8.1,8.1,35,0.00,CLR,SCT,0.00,WeatherDisplay:10.37,2013-04-28 20:49:00,
2013-04-28 16:54:00,85.6,55.6,30.34,ENE,68,4.6,5.5,36,0.00,CLR,SCT,0.00,WeatherDisplay:10.37,2013-04-28 20:54:00,
2013-04-28 16:59:00,85.5,54.7,30.34,NE,45,9.2,9.2,35,0.00,CLR,SCT,0.00,WeatherDisplay:10.37,2013-04-28 20:59:00,
2013-04-28 17:04:00,85.5,54.7,30.34,East,90,9.2,9.2,35,0.00,CLR,SCT,0.00,WeatherDisplay:10.37,2013-04-28 21:04:00,
2013-04-28 17:09:00,85.1,54.4,30.33,East,90,9.2,9.2,35,0.00,CLR,SCT,0.00,WeatherDisplay:10.37,2013-04-28 21:09:00,
2013-04-28 17:14:00,85.3,54.5,30.33,East,90,6.0,6.0,35,0.00,CLR,SCT,0.00,WeatherDisplay:10.37,2013-04-28 21:14:00,
2013-04-28 17:19:00,85.3,55.3,30.33,ENE,68,10.4,10.4,36,0.00,CLR,SCT,0.00,WeatherDisplay:10.37,2013-04-28 21:19:00,
2013-04-28 17:24:00,85.6,55.6,30.33,ENE,68,8.4,8.4,36,0.00,CLR,SCT,0.00,WeatherDisplay:10.37,2013-04-28 21:24:00,
2013-04-28 17:29:00,84.9,54.2,30.32,ESE,112,6.9,6.9,35,0.00,CLR,SCT,0.00,WeatherDisplay:10.37,2013-04-28 21:29:00,
2013-04-28 17:34:00,84.9,54.2,30.32,ENE,68,6.2,6.2,35,0.00,CLR,SCT,0.00,WeatherDisplay:10.37,2013-04-28 21:34:00,
2013-04-28 17:39:00,85.5,55.5,30.32,East,90,7.2,7.2,36,0.00,CLR,SCT,0.00,WeatherDisplay:10.37,2013-04-28 21:39:00,
2013-04-28 17:44:00,85.3,54.5,30.32,ESE,112,5.8,5.8,35,0.00,CLR,SCT,0.00,WeatherDisplay:10.37,2013-04-28 21:44:00,
2013-04-28 17:49:00,86.0,55.2,30.32,ENE,68,6.9,6.9,35,0.00,CLR,SCT,0.00,WeatherDisplay:10.37,2013-04-28 21:49:00,
2013-04-28 17:54:00,93.4,57.3,30.32,ESE,112,9.2,9.2,30,0.00,CLR,SCT,0.00,WeatherDisplay:10.37,2013-04-28 21:54:00,
2013-04-28 17:59:00,97.9,55.0,30.32,SE,135,10.4,10.4,24,0.00,CLR,SCT,0.00,WeatherDisplay:10.37,2013-04-28 21:59:00,
2013-04-28 18:04:00,96.4,51.4,30.32,ESE,112,5.8,6.0,22,0.00,CLR,SCT,0.00,WeatherDisplay:10.37,2013-04-28 22:04:00,
2013-04-28 18:09:00,100.2,53.2,30.31,ENE,68,6.9,6.9,21,0.00,CLR,SCT,0.00,WeatherDisplay:10.37,2013-04-28 22:09:00,
2013-04-28 18:14:00,100.8,48.0,30.31,ESE,112,8.1,8.1,17,0.00,CLR,SCT,0.00,WeatherDisplay:10.37,2013-04-28 22:14:00,
2013-04-28 18:19:00,101.5,48.6,30.31,East,90,8.1,8.1,17,0.00,CLR,SCT,0.00,WeatherDisplay:10.37,2013-04-28 22:19:00,
2013-04-28 18:24:00,101.5,48.6,30.31,ENE,68,6.9,6.9,17,0.00,CLR,SCT,0.00,WeatherDisplay:10.37,2013-04-28 22:24:00,
2013-04-28 18:29:00,99.1,46.7,30.32,ESE,112,6.9,6.9,17,0.00,CLR,SCT,0.00,WeatherDisplay:10.37,2013-04-28 22:29:00,
2013-04-28 18:34:00,96.1,48.5,30.32,ENE,68,4.6,4.6,20,0.00,CLR,SCT,0.00,WeatherDisplay:10.37,2013-04-28 22:34:00,
2013-04-28 18:39:00,94.5,47.2,30.32,ESE,112,3.5,3.7,20,0.00,CLR,SCT,0.00,WeatherDisplay:10.37,2013-04-28 22:39:00,
2013-04-28 18:44:00,93.7,46.6,30.32,ENE,68,4.6,4.6,20,0.00,CLR,SCT,0.00,WeatherDisplay:10.37,2013-04-28 22:44:00,
2013-04-28 18:49:00,90.1,47.3,30.32,ESE,112,5.8,5.8,23,0.00,CLR,SCT,0.00,WeatherDisplay:10.37,2013-04-28 22:49:00,
2013-04-28 18:54:00,88.3,48.1,30.32,ENE,68,4.9,4.9,25,0.00,CLR,SCT,0.00,WeatherDisplay:10.37,2013-04-28 22:54:00,
2013-04-28 18:59:00,88.7,49.4,30.32,ENE,68,5.8,5.8,26,0.00,CLR,SCT,0.00,WeatherDisplay:10.37,2013-04-28 22:59:00,
2013-04-28 19:04:00,89.4,49.0,30.32,ESE,112,6.9,6.9,25,0.00,CLR,SCT,0.00,WeatherDisplay:10.37,2013-04-28 23:04:00,
2013-04-28 19:10:00,89.1,49.7,30.32,East,90,6.9,6.9,26,0.00,CLR,SCT,0.00,WeatherDisplay:10.37,2013-04-28 23:10:00,
2013-04-28 19:15:00,87.3,49.2,30.32,ESE,106,3.0,8.0,27,0.00,CLR,SCT,0.00,WeatherDisplay:10.37,2013-04-28 23:15:00,
2013-04-28 19:19:00,86.0,51.0,30.32,SSE,158,5.8,5.8,30,0.00,CLR,SCT,0.00,WeatherDisplay:10.37,2013-04-28 23:19:00,
2013-04-28 19:25:00,85.5,50.5,30.32,SE,135,5.8,5.8,30,0.00,CLR,SCT,0.00,WeatherDisplay:10.37,2013-04-28 23:25:00,
2013-04-28 19:30:00,84.2,50.3,30.30,ESE,112,7.0,7.0,31,0.00,CLR,SCT,0.00,WeatherDisplay:10.37,2013-04-28 23:30:00,
2013-04-28 19:35:00,83.5,50.5,30.30,ESE,112,6.9,6.9,32,0.00,CLR,SCT,0.00,WeatherDisplay:10.37,2013-04-28 23:35:00,
2013-04-28 19:40:00,82.6,49.7,30.30,ENE,68,5.8,5.8,32,0.00,CLR,SCT,0.00,WeatherDisplay:10.37,2013-04-28 23:40:00,
2013-04-28 19:45:00,82.0,50.1,30.30,ESE,112,5.8,5.8,33,0.00,CLR,SCT,0.00,WeatherDisplay:10.37,2013-04-28 23:45:00,
2013-04-28 19:50:00,81.7,50.6,30.29,ENE,68,6.9,6.9,34,0.00,CLR,SCT,0.00,WeatherDisplay:10.37,2013-04-28 23:50:00,
2013-04-28 19:55:00,81.3,50.3,30.29,East,90,4.6,4.6,34,0.00,CLR,SCT,0.00,WeatherDisplay:10.37,2013-04-28 23:55:00,
2013-04-28 20:00:00,81.0,50.7,30.29,ENE,68,4.6,4.6,35,0.00,CLR,SCT,0.00,WeatherDisplay:10.37,2013-04-29 00:00:00,
2013-04-28 20:05:00,80.6,50.4,30.29,ESE,112,5.2,5.2,35,0.00,CLR,SCT,0.00,WeatherDisplay:10.37,2013-04-29 00:05:00,
2013-04-28 20:10:00,80.4,51.0,30.29,ENE,68,2.4,3.2,36,0.00,CLR,SCT,0.00,WeatherDisplay:10.37,2013-04-29 00:10:00,
2013-04-28 20:15:00,80.2,51.6,30.29,East,90,2.6,2.6,37,0.00,CLR,SCT,0.00,WeatherDisplay:10.37,2013-04-29 00:15:00,
2013-04-28 20:20:00,80.1,51.4,30.29,ENE,68,3.5,3.5,37,0.00,CLR,SCT,0.00,WeatherDisplay:10.37,2013-04-29 00:20:00,
2013-04-28 20:25:00,79.9,52.0,30.29,ESE,112,3.5,3.5,38,0.00,CLR,SCT,0.00,WeatherDisplay:10.37,2013-04-29 00:25:00,
2013-04-28 20:30:00,79.7,51.1,30.30,ESE,112,4.6,4.6,37,0.00,CLR,SCT,0.00,WeatherDisplay:10.37,2013-04-29 00:30:00,
2013-04-28 20:35:00,79.5,51.0,30.30,ENE,68,5.8,5.8,37,0.00,CLR,SCT,0.00,WeatherDisplay:10.37,2013-04-29 00:35:00,
2013-04-28 20:40:00,79.5,51.0,30.30,East,90,4.6,4.6,37,0.00,CLR,SCT,0.00,WeatherDisplay:10.37,2013-04-29 00:40:00,
2013-04-28 20:45:00,79.3,51.5,30.30,NNE,22,2.3,2.6,38,0.00,CLR,SCT,0.00,WeatherDisplay:10.37,2013-04-29 00:45:00,
2013-04-28 20:50:00,79.0,51.9,30.30,ENE,68,4.6,4.6,39,0.00,CLR,SCT,0.00,WeatherDisplay:10.37,2013-04-29 00:50:00,
2013-04-28 20:55:00,78.8,51.7,30.30,SE,135,5.8,5.8,39,0.00,CLR,SCT,0.00,WeatherDisplay:10.37,2013-04-29 00:55:00,
2013-04-28 21:00:00,78.6,51.6,30.30,East,90,6.9,6.9,39,0.00,CLR,SCT,0.00,WeatherDisplay:10.37,2013-04-29 01:00:00,
2013-04-28 21:05:00,78.6,51.6,30.30,ENE,68,3.5,3.5,39,0.00,CLR,SCT,0.00,WeatherDisplay:10.37,2013-04-29 01:05:00,
2013-04-28 21:10:00,78.6,51.6,30.29,ENE,68,5.8,5.8,39,0.00,CLR,SCT,0.00,WeatherDisplay:10.37,2013-04-29 01:10:00,
2013-04-28 21:15:00,78.6,51.6,30.29,NE,45,4.6,4.6,39,0.00,CLR,SCT,0.00,WeatherDisplay:10.37,2013-04-29 01:15:00,
2013-04-28 21:20:00,78.6,51.6,30.29,East,90,6.9,6.9,39,0.00,CLR,SCT,0.00,WeatherDisplay:10.37,2013-04-29 01:20:00,
2013-04-28 21:25:00,78.4,51.4,30.29,East,90,6.9,6.9,39,0.00,CLR,SCT,0.00,WeatherDisplay:10.37,2013-04-29 01:25:00,
2013-04-28 21:30:00,78.3,51.3,30.30,SE,135,5.2,5.2,39,0.00,CLR,SCT,0.00,WeatherDisplay:10.37,2013-04-29 01:30:00,
2013-04-28 21:35:00,78.1,51.1,30.30,ENE,68,4.6,4.6,39,0.00,CLR,SCT,0.00,WeatherDisplay:10.37,2013-04-29 01:35:00,
2013-04-28 21:40:00,77.9,50.9,30.30,SE,135,6.9,6.9,39,0.00,CLR,SCT,0.00,WeatherDisplay:10.37,2013-04-29 01:40:00,
2013-04-28 21:45:00,77.9,50.2,30.30,East,90,4.6,4.6,38,0.00,CLR,SCT,0.00,WeatherDisplay:10.37,2013-04-29 01:45:00,
2013-04-28 21:50:00,77.7,50.8,30.30,ESE,112,3.5,3.5,39,0.00,CLR,SCT,0.00,WeatherDisplay:10.37,2013-04-29 01:50:00,
2013-04-28 21:55:00,77.7,50.8,30.30,SSE,158,5.8,5.8,39,0.00,CLR,SCT,0.00,WeatherDisplay:10.37,2013-04-29 01:55:00,
2013-04-28 22:00:00,77.7,50.1,30.30,ESE,112,5.8,5.8,38,0.00,CLR,SCT,0.00,WeatherDisplay:10.37,2013-04-29 02:00:00,
2013-04-28 22:05:00,77.7,50.1,30.30,ENE,68,6.9,6.9,38,0.00,CLR,SCT,0.00,WeatherDisplay:10.37,2013-04-29 02:05:00,
2013-04-28 22:10:00,77.5,50.6,30.30,East,90,4.6,4.6,39,0.00,CLR,SCT,0.00,WeatherDisplay:10.37,2013-04-29 02:10:00,
2013-04-28 22:15:00,77.7,50.8,30.30,ESE,112,8.1,8.1,39,0.00,CLR,SCT,0.00,WeatherDisplay:10.37,2013-04-29 02:15:00,
2013-04-28 22:20:00,77.5,50.6,30.30,ESE,112,5.8,5.8,39,0.00,CLR,SCT,0.00,WeatherDisplay:10.37,2013-04-29 02:20:00,
2013-04-28 22:25:00,77.5,50.6,30.30,ESE,112,5.8,5.8,39,0.00,CLR,SCT,0.00,WeatherDisplay:10.37,2013-04-29 02:25:00,
2013-04-28 22:30:00,77.4,51.8,30.31,ENE,68,6.9,6.9,41,0.00,CLR,SCT,0.00,WeatherDisplay:10.37,2013-04-29 02:30:00,
2013-04-28 22:35:00,77.4,51.8,30.31,ESE,112,3.5,3.8,41,0.00,CLR,SCT,0.00,WeatherDisplay:10.37,2013-04-29 02:35:00,
2013-04-28 22:40:00,77.4,52.5,30.31,East,90,8.1,8.1,42,0.00,CLR,SCT,0.00,WeatherDisplay:10.37,2013-04-29 02:40:00,
2013-04-28 22:45:00,77.4,52.5,30.31,ESE,112,6.9,6.9,42,0.00,CLR,SCT,0.00,WeatherDisplay:10.37,2013-04-29 02:45:00,
2013-04-28 22:50:00,77.5,53.3,30.31,ESE,112,3.5,4.0,43,0.00,CLR,SCT,0.00,WeatherDisplay:10.37,2013-04-29 02:50:00,
2013-04-28 22:55:00,77.4,53.7,30.31,NNE,22,5.8,5.8,44,0.00,CLR,SCT,0.00,WeatherDisplay:10.37,2013-04-29 02:55:00,
2013-04-28 23:00:00,77.4,52.5,30.31,East,90,6.9,6.9,42,0.00,CLR,SCT,0.00,WeatherDisplay:10.37,2013-04-29 03:00:00,
2013-04-28 23:05:00,77.4,53.7,30.31,East,90,4.6,4.6,44,0.00,CLR,SCT,0.00,WeatherDisplay:10.37,2013-04-29 03:05:00,
2013-04-28 23:10:00,77.4,55.0,30.31,SE,135,6.9,6.9,46,0.00,CLR,SCT,0.00,WeatherDisplay:10.37,2013-04-29 03:10:00,
2013-04-28 23:15:00,77.2,54.8,30.31,ENE,68,5.8,5.8,46,0.00,CLR,SCT,0.00,WeatherDisplay:10.37,2013-04-29 03:15:00,
2013-04-28 23:20:00,77.2,53.6,30.31,ENE,68,8.1,8.1,44,0.00,CLR,SCT,0.00,WeatherDisplay:10.37,2013-04-29 03:20:00,
2013-04-28 23:25:00,77.2,54.8,30.31,SE,135,5.8,5.8,46,0.00,CLR,SCT,0.00,WeatherDisplay:10.37,2013-04-29 03:25:00,
2013-04-28 23:30:00,77.2,54.2,30.31,ENE,68,9.2,9.2,45,0.00,CLR,SCT,0.00,WeatherDisplay:10.37,2013-04-29 03:30:00,
2013-04-28 23:35:00,77.2,53.6,30.31,ESE,112,9.3,9.3,44,0.00,CLR,SCT,0.00,WeatherDisplay:10.37,2013-04-29 03:35:00,
2013-04-28 23:40:00,77.2,54.8,30.31,East,90,7.9,7.9,46,0.00,CLR,SCT,0.00,WeatherDisplay:10.37,2013-04-29 03:40:00,
2013-04-28 23:45:00,77.2,54.8,30.31,ESE,112,5.8,5.8,46,0.00,CLR,SCT,0.00,WeatherDisplay:10.37,2013-04-29 03:45:00,
2013-04-28 23:50:00,77.0,54.0,30.30,East,90,6.9,6.9,45,0.00,CLR,SCT,0.00,WeatherDisplay:10.37,2013-04-29 03:50:00,
2013-04-28 23:55:00,77.0,54.0,30.30,ESE,112,4.6,4.7,45,0.00,CLR,SCT,0.00,WeatherDisplay:10.37,2013-04-29 03:55:00,